NOAA 8 (13923 NORAD) Tracking and Keplerian Element Data

This shows tracking and keplerian element data for the satellite.

Feedback or suggestion? Click here.




ElementValue
Catalog13923
NameNOAA 8
Epoch Orbit22546
Epoch Day353.98466475
Epoch Year2025
RAAN1.5324
Inclination98.737
Eccentricity0.0015729
Argument of Perigee64.8133
Mean Anonmoly295.4678
Mean Motion14.29726847
Decay Rate1.05E-06
L11 13923U 83022A 25353.98466475 .00000105 00000+0 58303-4 0 9998
L22 13923 98.7370 1.5324 0015729 64.8133 295.4678 14.29726847225468



Live tracking and technical data element details for NOAA 8 (NORAD 13923). NOAA 8 can be tracked NOW for your location showing map with azimuth and elevation plus other details from your city location.







IsCatalogInMostPopularTable: catalog: 13923, numindb: 665
Update: records affected: 1



GetName: 13923 NOAA 8

Hit Count: updated at: Thu, 21 May 2026 11:21:25 GMT